When you browse on this site, cookies collect data to enhance your experience and personalize the content and advertising you see.
Visit our Privacy Policy to learn more. By continuing to use the site, you agree to this use of cookies and data.
  • In United Kingdom
  • List of Countries
  • For 7 days
  • Water Temperature
  • Satellite Maps
  • Weather Map
  • Weather Widgets
  • user-avatar
    Login

    Hourly Weather Wewak

    Today, 20 July, Saturday

    Time Temperature Precipitation Wind Pressure Humidity
    00:00 +27°C° 0 mm 3 mps 755 mmHg 97%
    01:00 +27°C° 0 mm 3 mps 755 mmHg 97%
    02:00 +27°C° 0.1 mm 3 mps 755 mmHg 97%
    03:00 +27°C° 0.1 mm 3 mps 754 mmHg 97%
    04:00 +27°C° 0 mm 3 mps 754 mmHg 97%
    05:00 +27°C° 0.4 mm 3 mps 754 mmHg 97%
    06:00 +26°C° 0.4 mm 3 mps 755 mmHg 97%
    07:00 +26°C° 0.4 mm 3 mps 755 mmHg 98%
    08:00 +28°C° 0.2 mm 3 mps 755 mmHg 92%
    09:00 +29°C° 0.2 mm 2 mps 755 mmHg 86%
    10:00 +31°C° 0 mm 3 mps 756 mmHg 79%
    11:00 +31°C° 0.7 mm 3 mps 755 mmHg 79%
    12:00 +33°C° 0.7 mm 3 mps 754 mmHg 78%
    13:00 +33°C° 0.7 mm 3 mps 754 mmHg 78%
    14:00 +33°C° 0.3 mm 3 mps 753 mmHg 79%
    15:00 +33°C° 0.3 mm 3 mps 753 mmHg 80%
    16:00 +31°C° 0.3 mm 3 mps 753 mmHg 81%
    17:00 +30°C° 0 mm 3 mps 753 mmHg 85%
    18:00 +29°C° 0 mm 3 mps 753 mmHg 88%
    19:00 +28°C° 0 mm 3 mps 753 mmHg 92%
    20:00 +27°C° 0 mm 3 mps 754 mmHg 93%
    21:00 +27°C° 0 mm 3 mps 755 mmHg 95%
    22:00 +27°C° 0 mm 3 mps 755 mmHg 96%
    23:00 +27°C° 0.3 mm 3 mps 755 mmHg 96%

    Tomorrow, 21 July, Sunday

    Time Temperature Precipitation Wind Pressure Humidity
    00:00 +27°C° 0.3 mm 3 mps 755 mmHg 96%
    01:00 +27°C° 0.3 mm 3 mps 755 mmHg 97%
    02:00 +27°C° 0.9 mm 3 mps 754 mmHg 97%
    03:00 +26°C° 0.9 mm 2 mps 754 mmHg 97%
    04:00 +26°C° 0.9 mm 2 mps 754 mmHg 97%
    05:00 +26°C° 0.5 mm 2 mps 754 mmHg 97%
    06:00 +26°C° 0.5 mm 2 mps 754 mmHg 97%
    07:00 +26°C° 0.5 mm 3 mps 755 mmHg 97%
    08:00 +27°C° 0.2 mm 3 mps 755 mmHg 93%
    09:00 +28°C° 0.2 mm 3 mps 755 mmHg 89%
    10:00 +29°C° 0.2 mm 3 mps 755 mmHg 85%
    11:00 +31°C° 0.6 mm 3 mps 755 mmHg 77%
    12:00 +32°C° 0.6 mm 2 mps 754 mmHg 69%
    13:00 +35°C° 0.6 mm 2 mps 754 mmHg 61%
    14:00 +34°C° 0.6 mm 2 mps 753 mmHg 70%
    15:00 +31°C° 0.6 mm 3 mps 753 mmHg 79%
    16:00 +30°C° 0.6 mm 3 mps 752 mmHg 89%
    17:00 +29°C° 0.4 mm 3 mps 753 mmHg 91%
    18:00 +28°C° 0.4 mm 3 mps 753 mmHg 93%
    19:00 +27°C° 0.4 mm 4 mps 753 mmHg 95%
    20:00 +27°C° 0.9 mm 3 mps 754 mmHg 95%
    21:00 +27°C° 0.9 mm 3 mps 754 mmHg 95%
    22:00 +27°C° 0.9 mm 3 mps 755 mmHg 95%
    23:00 +27°C° 1.7 mm 3 mps 754 mmHg 95%

    Day after tomorrow, 22 July, Monday

    Time Temperature Precipitation Wind Pressure Humidity
    00:00 +26°C° 1.7 mm 3 mps 754 mmHg 95%
    01:00 +26°C° 1.7 mm 3 mps 754 mmHg 95%
    02:00 +26°C° 0.9 mm 3 mps 754 mmHg 95%
    03:00 +26°C° 0.9 mm 3 mps 753 mmHg 95%
    04:00 +26°C° 0.9 mm 3 mps 753 mmHg 95%
    05:00 +26°C° 0.6 mm 3 mps 754 mmHg 95%
    06:00 +26°C° 0.6 mm 3 mps 754 mmHg 96%
    07:00 +25°C° 0.6 mm 3 mps 754 mmHg 96%
    08:00 +27°C° 0.4 mm 3 mps 754 mmHg 93%
    09:00 +28°C° 0.4 mm 3 mps 754 mmHg 91%
    10:00 +29°C° 0.4 mm 2 mps 755 mmHg 88%
    11:00 +30°C° 0.7 mm 3 mps 754 mmHg 84%
    12:00 +30°C° 0.7 mm 3 mps 753 mmHg 81%
    13:00 +31°C° 0.7 mm 3 mps 753 mmHg 78%
    14:00 +31°C° 0.4 mm 3 mps 752 mmHg 78%
    15:00 +31°C° 0.4 mm 3 mps 752 mmHg 78%
    16:00 +31°C° 0.4 mm 3 mps 752 mmHg 78%
    17:00 +30°C° 1 mm 3 mps 752 mmHg 83%
    18:00 +29°C° 1 mm 3 mps 752 mmHg 87%
    19:00 +27°C° 1 mm 4 mps 753 mmHg 91%
    20:00 +27°C° 1.3 mm 4 mps 753 mmHg 92%
    21:00 +27°C° 1.3 mm 4 mps 754 mmHg 93%
    22:00 +27°C° 1.3 mm 4 mps 754 mmHg 94%
    23:00 +26°C° 1.8 mm 4 mps 754 mmHg 94%

    23 July, Tuesday

    Time Temperature Precipitation Wind Pressure Humidity
    00:00 +26°C° 1.8 mm 4 mps 754 mmHg 95%
    01:00 +26°C° 1.8 mm 4 mps 754 mmHg 95%
    02:00 +26°C° 1.3 mm 4 mps 753 mmHg 96%
    03:00 +25°C° 1.3 mm 4 mps 753 mmHg 96%
    04:00 +25°C° 1.3 mm 4 mps 753 mmHg 97%
    05:00 +25°C° 0.4 mm 4 mps 753 mmHg 97%
    06:00 +25°C° 0.4 mm 4 mps 754 mmHg 98%
    07:00 +25°C° 0.4 mm 4 mps 754 mmHg 98%
    08:00 +26°C° 0.3 mm 3 mps 754 mmHg 92%
    09:00 +28°C° 0.3 mm 3 mps 755 mmHg 86%
    10:00 +29°C° 0.3 mm 3 mps 755 mmHg 80%
    11:00 +29°C° 0.5 mm 3 mps 754 mmHg 79%
    12:00 +30°C° 0.5 mm 4 mps 754 mmHg 77%
    13:00 +30°C° 0.5 mm 4 mps 753 mmHg 76%
    14:00 +30°C° 0.4 mm 3 mps 753 mmHg 72%
    15:00 +31°C° 0.4 mm 3 mps 752 mmHg 69%
    16:00 +33°C° 0.4 mm 3 mps 752 mmHg 65%
    17:00 +30°C° 0.2 mm 3 mps 753 mmHg 73%
    18:00 +29°C° 0.2 mm 3 mps 753 mmHg 82%
    19:00 +27°C° 0.2 mm 3 mps 753 mmHg 90%
    20:00 +27°C° 1.3 mm 3 mps 754 mmHg 91%
    21:00 +27°C° 1.3 mm 4 mps 755 mmHg 93%
    22:00 +27°C° 1.3 mm 4 mps 755 mmHg 94%
    23:00 +26°C° 1.6 mm 4 mps 755 mmHg 95%

    24 July, Wednesday

    Time Temperature Precipitation Wind Pressure Humidity
    00:00 +26°C° 1.6 mm 4 mps 755 mmHg 96%
    01:00 +26°C° 1.6 mm 4 mps 755 mmHg 97%
    02:00 +26°C° 1 mm 4 mps 754 mmHg 97%
    03:00 +26°C° 1 mm 3 mps 754 mmHg 97%
    04:00 +25°C° 1 mm 3 mps 754 mmHg 98%
    05:00 +25°C° 0.6 mm 3 mps 754 mmHg 98%
    06:00 +25°C° 0.6 mm 3 mps 755 mmHg 98%
    07:00 +25°C° 0.6 mm 3 mps 755 mmHg 98%
    08:00 +27°C° 0.1 mm 3 mps 755 mmHg 93%
    09:00 +28°C° 0.1 mm 3 mps 756 mmHg 88%
    10:00 +29°C° 0.1 mm 3 mps 756 mmHg 84%
    11:00 +30°C° 0.1 mm 3 mps 755 mmHg 77%
    12:00 +33°C° 0.1 mm 3 mps 755 mmHg 70%
    13:00 +34°C° 0.1 mm 4 mps 754 mmHg 63%
    14:00 +33°C° 0.1 mm 4 mps 754 mmHg 65%
    15:00 +33°C° 0.1 mm 4 mps 753 mmHg 68%
    16:00 +33°C° 0.1 mm 5 mps 753 mmHg 71%
    17:00 +30°C° 0.1 mm 5 mps 753 mmHg 77%
    18:00 +29°C° 0.1 mm 5 mps 754 mmHg 84%
    19:00 +28°C° 0.1 mm 5 mps 754 mmHg 91%
    20:00 +28°C° 0.9 mm 5 mps 755 mmHg 92%
    21:00 +27°C° 0.9 mm 5 mps 755 mmHg 94%
    22:00 +27°C° 0.9 mm 6 mps 756 mmHg 95%
    23:00 +27°C° 1.6 mm 6 mps 755 mmHg 95%

    25 July, Thursday

    Time Temperature Precipitation Wind Pressure Humidity
    00:00 +27°C° 1.6 mm 6 mps 755 mmHg 95%
    01:00 +26°C° 1.6 mm 6 mps 755 mmHg 96%
    02:00 +26°C° 1.5 mm 6 mps 755 mmHg 96%
    03:00 +26°C° 1.5 mm 5 mps 754 mmHg 97%
    04:00 +26°C° 1.5 mm 5 mps 754 mmHg 97%
    05:00 +25°C° 0.4 mm 5 mps 755 mmHg 97%
    06:00 +25°C° 0.4 mm 4 mps 755 mmHg 98%
    07:00 +25°C° 0.4 mm 3 mps 755 mmHg 98%
    08:00 +27°C° 0.1 mm 3 mps 756 mmHg 93%
    09:00 +28°C° 0.1 mm 3 mps 756 mmHg 89%
    10:00 +29°C° 0.1 mm 2 mps 756 mmHg 84%
    11:00 +31°C° 0.9 mm 2 mps 756 mmHg 78%
    12:00 +32°C° 0.9 mm 2 mps 755 mmHg 72%
    13:00 +34°C° 0.9 mm 2 mps 754 mmHg 66%
    14:00 +33°C° 1.1 mm 3 mps 754 mmHg 72%
    15:00 +31°C° 1.1 mm 3 mps 754 mmHg 79%
    16:00 +30°C° 1.1 mm 3 mps 753 mmHg 86%
    17:00 +29°C° 0.8 mm 3 mps 754 mmHg 88%
    18:00 +28°C° 0.8 mm 3 mps 754 mmHg 91%
    19:00 +27°C° 0.8 mm 3 mps 755 mmHg 94%
    20:00 +27°C° 1.7 mm 4 mps 755 mmHg 94%
    21:00 +27°C° 1.7 mm 4 mps 756 mmHg 94%
    22:00 +26°C° 1.7 mm 4 mps 756 mmHg 94%
    23:00 +26°C° 0.8 mm 3 mps 756 mmHg 95%
    Show more